Weather History for Flagstaff, AZ

Change the Weather History Date:

Thursday, February 7, 2013

  Actual Average Record
Temperature  
Mean Temperature 34 °F 31 °F  
Max Temperature 48 °F 44 °F 66 °F (1963)
Min Temperature 19 °F 18 °F -18 °F (1903)
Degree Days  
Heating Degree Days 31 34  
Month to date heating degree days 203 238  
Since 1 July heating degree days 4040 4154  
Cooling Degree Days 0 0  
Month to date cooling degree days 0 0  
Year to date cooling degree days 0 0  
Moisture  
Dew Point 22 °F    
Average Humidity 65    
Maximum Humidity 92    
Minimum Humidity 37    
Precipitation  
Precipitation 0.00 in 0.08 in 1.24 in (1901)
Month to date precipitation 0.02 0.50  
Year to date precipitation 2.66 2.55  
Snow  
Snow 0.00 in 0.80 in 12.40 in (1901)
Month to date snowfall T 5.5  
Since 1 July snowfall 33.0 57.8  
Snow Depth 0.00 in    
Sea Level Pressure  
Sea Level Pressure 30.08 in    
Wind  
Wind Speed 2 mph (SSW)    
Max Wind Speed 14 mph    
Max Gust Speed 18 mph    
Visibility 10 miles    
Events      
T = Trace of Precipitation, MM = Missing Value Source: NWS Daily Summary

Daily Weather History Graph

Daily Weather History Graph

Search for Another Location

Airport:

Trip Planner

Search our weather history database for the weather conditions in past years. The results will help you decide how hot, cold, wet, or windy it might be!

Date:

Astronomy

Feb. 07, 2013 Rise Set
Actual Time 7:20 AM MST 6:01 PM MST
Civil Twilight 6:54 AM MST 6:28 PM MST
Nautical Twilight 6:24 AM MST 6:58 PM MST
Astronomical Twilight 5:54 AM MST 7:27 PM MST
Moon 4:59 AM MST (2/7) 3:33 PM MST (2/7)
Length of Visible Light 11h 33m
Length of Day
10h 41m
Waning Crescent, 8% of the Moon is Illuminated
Feb 7
Waning Crescent
Feb 10
New
Feb 17
First Quarter
Feb 25
Full
Mar 4
Last Quarter

Hourly Weather History & Observations

Time (MST) Temp. Windchill Dew Point Humidity Pressure Visibility Wind Dir Wind Speed Gust Speed Precip Events Conditions
12:57 AM 26.1 °F - 24.1 °F 92% 30.06 in 10.0 mi Calm Calm - N/A   Clear
1:57 AM 25.0 °F - 21.9 °F 88% 30.06 in 10.0 mi Calm Calm - N/A   Clear
2:57 AM 23.0 °F - 19.9 °F 88% 30.06 in 10.0 mi Calm Calm - N/A   Clear
3:57 AM 21.9 °F - 19.0 °F 89% 30.08 in 10.0 mi Calm Calm - N/A   Clear
4:57 AM 21.0 °F - 18.0 °F 88% 30.09 in 10.0 mi Calm Calm - N/A   Clear
5:57 AM 19.9 °F - 17.1 °F 89% 30.14 in 10.0 mi Calm Calm - N/A   Clear
6:57 AM 19.9 °F - 17.1 °F 89% 30.17 in 10.0 mi Calm Calm - N/A   Clear
7:57 AM 21.9 °F - 19.9 °F 92% 30.18 in 10.0 mi Calm Calm - N/A   Clear
8:57 AM 30.0 °F - 26.1 °F 85% 30.17 in 10.0 mi Calm Calm - N/A   Clear
9:57 AM 37.0 °F 34.5 °F 28.0 °F 70% 30.15 in 10.0 mi East 3.5 mph - N/A   Clear
10:57 AM 41.0 °F - 30.0 °F 65% 30.14 in 10.0 mi Calm Calm - N/A   Clear
11:57 AM 43.0 °F 41.3 °F 21.9 °F 43% 30.12 in 10.0 mi Variable 3.5 mph - N/A   Clear
12:57 PM 45.0 °F - 21.0 °F 39% 30.06 in 10.0 mi Calm Calm - N/A   Clear
1:57 PM 48.0 °F - 24.1 °F 39% 30.03 in 10.0 mi SSW 10.4 mph 16.1 mph N/A   Clear
2:57 PM 46.9 °F - 23.0 °F 39% 30.03 in 10.0 mi SSW 6.9 mph 17.3 mph N/A   Clear
3:57 PM 46.0 °F 41.4 °F 21.0 °F 37% 30.03 in 10.0 mi SSW 9.2 mph - N/A   Clear
4:57 PM 45.0 °F 40.1 °F 21.9 °F 40% 30.04 in 10.0 mi SW 9.2 mph - N/A   Clear
5:57 PM 42.1 °F 38.4 °F 23.0 °F 47% 30.05 in 10.0 mi South 5.8 mph - N/A   Clear
6:57 PM 34.0 °F - 21.9 °F 61% 30.09 in 10.0 mi Calm Calm - N/A   Clear
7:57 PM 28.9 °F - 21.0 °F 72% 30.10 in 10.0 mi Calm Calm - N/A   Clear
8:57 PM 27.0 °F - 19.9 °F 75% 30.07 in 10.0 mi Calm Calm - N/A   Clear
9:57 PM 27.0 °F - 21.9 °F 81% 30.01 in 10.0 mi Calm Calm - N/A   Clear
10:57 PM 27.0 °F - 21.0 °F 78% 29.97 in 10.0 mi Calm Calm - N/A   Clear
11:57 PM 27.0 °F - 21.9 °F 81% 29.94 in 10.0 mi Calm Calm - N/A   Clear